RH
21 20 26 37 46 38 40 59 66 65 49 68 87 77 97 98 96 89 96 100 100 100 99 66 40 46 66 84 79 90 97 100 85 62 32 16 12 12 13 14 18 18 18
22 22 29 24 31 41 54 53 42 37 53 60 45 41 80 68 72 99 92 81 99 96 75 45 47 68 100 100 99 96 84 66 42 32 19 12 12 14 18 20 23 25 26
35 42 55 71 83 83 62 38 38 50 58 29 14 26 55 21 14 22 15 45 23 32 38 45 81 100 100 100 86 61 55 41 27 21 17 13 13 18 23 28 26 28 30
99 100 96 84 68 48 58 54 66 56 22 11 10 10 12 13 16 20 28 34 38 47 58 93 96 94 95 70 63 56 40 31 24 16 12 13 15 21 33 36 35 32 26
24 35 52 54 63 72 89 94 54 14 11 11 13 15 19 23 26 31 35 40 46 54 70 87 82 76 71 67 60 46 32 21 14 13 14 17 18 28 40 39 32 28 26
59 75 100 100 88 77 60 19 12 13 14 17 19 28 31 33 35 38 39 42 48 70 84 79 82 69 63 60 55 39 20 13 12 14 14 14 17 21 25 27 27 26 25
44 32 42 45 38 17 13 13 16 20 22 26 36 39 39 39 40 41 43 49 67 82 88 83 68 65 65 52 34 28 22 13 10 10 9 14 18 22 26 27 27 26 33
33 47 44 35 17 13 16 20 25 32 37 43 44 44 44 43 44 47 55 75 88 89 77 66 59 61 54 38 30 18 11 10 9 10 11 14 18 22 25 26 24 30 42
44 40 25 16 15 20 22 32 41 45 47 44 46 49 50 50 51 61 78 85 84 74 62 58 63 59 46 32 17 13 9 7 12 18 17 18 17 20 22 22 34 44 52
29 20 17 19 23 27 36 41 46 41 41 50 56 57 57 57 60 74 85 83 71 62 56 60 62 54 43 29 18 12 7 9 13 17 17 13 16 18 20 44 76 71 57
20 19 20 21 24 31 39 38 37 41 50 58 62 65 65 68 72 73 77 72 60 53 57 59 55 45 31 20 11 6 8 11 13 17 11 11 10 23 48 99 100 93 62
20 21 21 24 28 34 36 37 43 54 65 69 71 70 69 75 71 68 66 62 63 64 64 57 48 35 25 14 6 8 10 9 11 14 9 9 20 73 100 91 80 71 62
21 21 24 28 39 39 41 50 59 68 71 73 72 69 69 70 63 57 58 63 66 64 58 50 34 23 12 7 8 10 10 6 15 11 9 11 78 87 78 80 94 72 61
23 25 32 44 47 51 62 69 72 76 77 74 70 68 67 64 60 63 63 64 63 62 54 38 25 14 7 8 10 12 7 10 16 9 8 11 22 44 58 65 53 48 56
31 41 50 59 70 76 74 74 77 80 78 74 69 66 64 65 66 66 67 67 63 57 44 28 16 8 8 12 13 11 6 15 15 8 9 13 45 64 66 43 38 45 63
53 62 74 82 79 75 74 75 81 75 74 74 70 69 70 71 73 74 72 67 59 43 27 16 9 11 15 17 15 8 8 17 14 10 11 19 46 65 60 43 41 51 80
76 86 88 77 75 76 73 76 72 78 83 79 78 76 81 82 81 76 69 62 44 24 15 10 11 15 20 21 15 9 11 16 17 13 18 32 43 67 60 49 50 71 88
97 100 87 78 78 79 80 88 90 90 86 81 76 82 88 87 77 74 65 44 24 15 11 12 16 22 27 24 14 10 14 18 17 19 32 56 75 70 69 51 57 84 93
97 98 82 88 95 91 94 97 99 95 94 94 95 91 83 77 75 68 44 24 17 12 12 17 22 30 30 22 14 13 17 19 31 69 70 52 50 63 59 53 78 96 100
100 90 92 100 99 99 99 100 99 99 99 99 95 86 84 80 68 42 24 18 13 14 18 21 28 35 31 20 16 17 20 26 62 100 100 74 58 68 68 75 98 100 100
99 100 100 99 99 100 100 100 100 100 100 96 92 86 85 66 39 25 18 15 16 18 22 28 39 36 24 21 18 20 25 34 60 100 100 68 79 89 76 100 100 100 100
100 100 100 100 100 100 100 100 100 99 99 96 93 86 59 32 26 21 18 19 21 24 32 42 40 29 25 22 21 23 27 35 61 100 100 93 98 79 99 100 100 100 100
100 100 100 100 100 100 100 100 100 100 99 94 79 50 33 29 24 22 21 23 27 36 47 44 34 30 27 23 24 29 36 41 68 100 100 100 100 98 100 100 100 100 100
100 100 100 100 100 100 100 100 100 99 91 65 39 36 33 27 24 24 26 32 43 51 47 38 34 33 25 27 33 41 45 46 59 100 100 100 100 100 100 100 100 100 100
100 100 100 100 100 100 100 100 95 76 45 34 34 31 26 25 27 33 41 50 55 48 42 42 39 28 27 34 45 48 47 41 71 100 100 100 100 100 100 100 100 100 100
100 100 100 98 97 96 89 70 42 27 29 28 26 25 29 35 43 49 54 54 46 46 50 45 32 28 33 44 51 47 44 36 79 100 100 100 100 100 100 100 100 100 100
Wind_Speed
25 26 27 31 31 34 38 40 40 41 43 44 44 40 35 39 39 41 51 59 58 61 68 79 81 77 75 73 76 80 84 86 91 89 90 90 91 93 93 92 83 72 65
29 31 30 32 35 38 42 46 45 44 45 46 43 38 47 44 54 55 52 61 66 73 77 80 75 72 76 76 82 83 88 88 88 89 88 90 93 91 89 84 72 64 60
32 33 35 38 41 43 46 46 46 47 48 46 47 44 45 55 55 58 57 61 67 68 70 71 72 76 79 82 85 84 86 87 89 90 90 92 93 89 83 74 67 64 61
40 41 43 45 45 46 45 46 47 48 48 48 48 48 50 52 54 57 59 61 63 65 65 63 70 73 78 80 84 85 86 87 89 91 93 94 91 82 74 72 69 66 63
40 39 39 41 43 45 46 44 45 46 47 47 48 49 51 54 56 59 61 63 63 64 65 66 68 70 74 79 82 83 86 88 90 94 94 89 81 75 72 70 70 65 58
33 34 35 39 38 40 41 42 43 44 45 47 49 52 56 58 60 62 63 63 64 65 64 65 70 74 79 82 82 81 84 89 92 92 88 82 78 73 70 68 65 59 53
38 38 36 37 38 39 39 40 43 45 47 50 53 56 59 61 62 62 63 63 65 65 66 69 73 79 82 83 84 87 88 90 92 88 83 76 75 70 67 63 59 53 47
37 38 39 39 39 40 41 43 45 48 51 54 57 60 62 62 62 63 63 65 65 65 67 72 78 82 83 84 87 89 92 93 88 82 78 72 69 65 61 58 53 46 41
36 38 38 39 40 41 43 46 48 51 53 57 60 62 62 63 62 63 65 66 66 67 72 77 83 85 85 85 89 90 89 85 76 76 75 71 65 59 53 48 44 42 36
36 36 37 39 41 43 45 48 51 53 57 61 63 62 63 63 64 66 68 67 69 72 76 82 85 87 87 89 90 90 88 80 72 69 70 65 55 50 43 40 40 38 35
35 37 39 41 43 45 48 51 53 57 61 63 63 63 64 66 69 68 66 70 73 77 81 85 87 87 88 90 89 87 81 74 67 62 58 51 48 46 35 29 33 37 34
38 40 42 44 46 49 52 55 58 61 64 64 63 65 67 67 65 66 69 73 78 82 86 88 88 89 90 89 86 81 74 69 59 52 47 46 44 40 39 40 34 32 30
42 44 45 47 50 54 57 60 63 65 64 63 65 66 65 64 67 70 73 77 82 85 88 88 89 90 89 85 79 72 67 59 50 47 44 42 35 44 44 36 37 35 30
45 46 49 52 55 58 61 64 65 63 64 65 66 65 66 68 72 74 77 81 85 88 89 88 90 89 86 80 72 66 61 51 45 43 41 39 36 36 34 33 35 33 28
48 51 54 57 59 62 63 64 63 64 67 68 67 68 70 72 75 79 83 86 89 91 89 90 90 87 81 72 67 61 55 47 43 40 40 36 35 35 36 36 33 29 27
53 56 58 61 61 63 64 63 65 68 69 69 70 72 74 76 80 84 87 89 90 89 89 87 84 78 72 68 65 58 51 45 40 39 37 35 33 33 36 32 29 26 25
57 60 61 61 64 64 64 67 69 68 69 71 72 74 77 81 85 88 88 89 88 86 86 84 78 72 67 67 63 55 49 46 40 36 35 35 34 33 34 30 26 24 24
63 59 61 63 63 63 67 70 70 70 71 72 74 77 81 86 87 87 87 87 83 83 82 78 72 67 66 67 62 53 45 42 40 36 31 35 34 33 30 28 25 24 23
60 63 65 63 63 67 70 70 71 72 74 76 79 82 85 86 87 86 85 82 81 81 79 73 68 65 67 67 58 49 43 40 37 34 33 33 32 29 28 26 24 22 22
62 65 64 65 68 69 71 72 73 74 76 79 83 85 86 86 85 83 80 79 80 78 75 71 66 67 69 62 52 43 39 37 34 36 39 35 30 26 25 23 23 22 21
62 65 67 68 68 70 73 74 75 77 80 83 85 86 85 84 81 78 78 79 78 75 71 66 66 69 66 55 46 40 36 34 35 38 39 32 27 25 23 23 23 22 21
66 67 68 70 71 72 74 77 79 82 84 85 85 85 83 78 76 78 79 79 76 72 68 66 66 66 58 48 42 36 33 33 35 35 34 29 25 24 23 23 23 22 21
69 70 73 73 73 76 79 82 84 85 86 86 84 81 77 76 78 80 79 76 73 68 67 67 65 58 49 43 39 35 32 31 34 37 33 27 24 23 25 24 23 22 21
73 74 74 76 78 81 84 86 87 87 86 83 80 77 78 79 80 79 76 73 69 67 66 64 58 49 42 39 35 30 27 27 31 33 30 27 25 22 22 23 24 22 22
74 76 78 81 84 87 88 89 88 86 83 80 79 80 80 80 78 75 72 69 67 65 62 57 49 42 37 33 29 27 27 28 29 33 33 30 25 27 22 25 24 24 23
79 83 85 88 89 90 89 88 86 84 83 82 82 82 80 77 74 71 69 67 63 59 55 48 42 37 34 30 29 29 28 26 30 33 34 29 25 29 23 24 25 25 24
Wind_Direction
276 272 273 275 281 287 292 295 296 298 301 304 303 305 296 303 293 299 296 288 276 283 292 300 301 302 301 303 308 308 308 305 306 307 308 308 308 309 310 312 313 312 310
274 276 279 277 278 281 286 290 294 297 299 300 299 296 289 292 291 289 292 295 282 287 295 298 300 304 299 303 308 309 306 306 307 307 307 307 307 309 311 311 311 309 309
271 271 272 275 279 282 286 288 292 293 294 295 296 293 284 290 290 289 290 286 289 293 294 299 302 297 297 303 307 307 306 306 306 307 307 306 308 310 310 309 309 309 308
268 272 274 277 280 282 283 285 287 289 291 293 293 293 293 294 294 295 295 295 296 297 300 299 294 299 301 304 304 305 306 306 306 306 306 307 308 310 308 308 308 307 307
270 273 273 273 273 276 280 282 285 287 289 291 294 296 296 297 298 299 300 299 299 299 300 300 302 303 304 305 305 306 306 306 306 307 308 308 309 307 306 305 305 306 306
273 273 273 274 277 280 281 283 285 288 291 294 296 298 300 301 301 301 301 301 300 300 300 303 306 308 309 309 308 307 306 306 307 307 308 308 307 304 304 302 303 303 303
275 278 279 280 282 283 285 287 289 293 295 297 299 301 302 301 301 301 299 299 300 301 303 305 308 310 310 309 309 310 310 308 306 307 307 306 303 305 302 300 300 300 299
275 278 281 285 285 287 289 291 293 296 298 299 301 301 300 300 300 300 301 301 301 301 305 308 311 312 311 310 311 310 309 309 309 308 306 303 303 300 299 299 299 296 296
273 276 278 280 284 287 290 293 295 297 298 299 300 301 301 301 301 300 300 300 302 304 307 310 313 313 312 311 310 310 309 310 308 305 305 304 304 301 300 297 296 295 293
272 275 279 283 286 288 291 293 296 299 301 302 302 302 301 300 301 300 301 302 303 306 309 312 313 312 312 312 311 311 310 309 305 302 301 301 301 299 298 294 294 295 289
278 281 283 285 288 292 296 298 299 301 301 301 301 301 301 301 302 302 302 305 306 309 312 312 312 312 313 313 311 311 309 305 303 299 298 297 297 296 295 287 299 299 287
281 283 286 289 293 295 298 300 300 301 302 302 301 302 304 302 302 304 305 307 310 312 312 312 313 313 313 313 312 310 308 305 302 298 296 297 295 298 291 291 295 296 282
283 287 290 293 295 298 299 300 301 301 302 302 303 303 302 303 304 305 306 309 311 312 312 313 313 313 313 313 313 311 308 305 299 297 297 297 292 285 285 290 291 293 285
287 289 292 294 297 299 300 301 301 302 303 304 303 303 304 304 305 307 310 311 311 312 313 313 313 313 314 314 313 312 309 303 298 297 295 293 288 286 286 287 288 285 278
288 291 294 296 299 300 300 301 303 305 305 304 303 304 305 305 308 310 311 310 310 312 312 313 314 314 315 315 315 312 308 301 296 294 294 292 282 285 289 288 284 278 273
291 294 296 298 298 298 301 302 304 305 304 303 304 304 305 307 309 310 310 310 312 312 313 314 314 314 315 316 316 311 306 299 294 292 291 288 284 283 285 284 277 271 268
293 295 296 297 298 299 301 302 302 302 303 304 304 304 306 308 309 310 310 311 312 313 314 314 314 314 314 317 316 310 304 296 294 291 286 282 282 286 283 275 269 265 264
292 291 298 297 298 300 301 301 302 303 303 303 303 305 307 308 309 310 311 312 312 313 314 314 313 313 314 318 314 308 298 291 289 286 278 276 277 278 274 267 260 260 260
289 294 296 296 299 300 300 301 302 303 303 304 305 306 307 308 309 310 311 311 312 313 313 313 311 311 314 315 310 303 294 286 282 278 276 276 276 273 265 258 254 255 255
290 296 296 297 298 299 300 300 301 302 303 304 306 307 308 309 309 311 311 311 312 313 313 312 310 311 314 312 306 298 290 282 271 267 270 277 273 267 257 251 250 248 248
292 292 293 295 296 297 298 299 300 302 304 305 307 308 308 309 310 310 311 312 312 312 312 310 310 312 313 308 302 296 287 276 266 260 268 274 268 263 252 247 245 242 244
289 292 293 293 295 297 298 299 301 304 305 306 307 308 309 310 310 311 311 312 312 312 311 310 312 312 310 304 300 293 283 273 261 258 268 268 261 253 242 240 238 238 243
293 294 295 296 296 297 299 301 303 305 305 306 308 309 309 309 310 311 311 311 311 311 310 311 312 310 306 302 298 292 282 270 252 247 255 258 254 241 236 235 234 238 243
293 294 295 296 297 299 301 303 304 304 306 307 308 308 308 309 309 310 310 311 310 310 310 310 310 307 303 300 296 291 284 274 250 240 239 252 241 228 231 233 233 239 243
294 295 296 298 299 301 302 302 303 304 305 306 306 307 308 309 309 309 310 309 309 309 309 309 307 304 301 297 291 286 291 277 243 227 233 242 238 216 229 230 229 234 240
296 297 298 299 300 301 301 302 302 303 304 305 306 307 307 308 308 309 309 309 308 308 308 306 304 302 298 293 289 293 288 279 233 222 228 240 236 210 218 223 227 233 240